Regional Weather Roundup
Issued by NWS Goodland, KS

Home | Current Version | Previous Version | Text Only | Print | Product List | Glossary Off
Versions: 1 2 3 4 5 6 7 8 9 10 11 12 13 14 15 16 17 18 19 20 21 22 23 24 25 26 27 28 29 30 31 32 33 34 35 36 37 38 39 40 41 42 43 44 45 46 47 48 49 50

000
ASUS43 KGLD 212059
RWRGLD

GOODLAND FORECAST AREA HOURLY WEATHER ROUNDUP
NATIONAL WEATHER SERVICE GOODLAND KS
200 PM MST WED FEB 21 2018

...OFFICIAL OBSERVATIONS...

CITY           SKY/WX    TMP DP  RH WIND       PRES   REMARKS
GOODLAND KS    FAIR      31   2  29 SE18G25   30.28F WCI  19
HILL CITY KS   PTSUNNY   27   0  31 SE5       30.43F
IMPERIAL NEB   FAIR      24   9  52 SE12      30.33F WCI  13
MCCOOK NEB     CLOUDY    28   5  37 SE8       30.39F
AKRON CO       FAIR      27  11  51 S20       30.17F WCI  13
BURLINGTON CO  FAIR      29   7  39 SE16      30.24F WCI  17
LIMON CO       FAIR      29   9  43 S16G26    30.13F WCI  17
$$

...UNOFFICIAL OBSERVATIONS...

CITY           SKY/WX    TMP DP  RH WIND       PRES   REMARKS
LENORA KS        N/A     28  32 100 CALM        N/A
TRENTON NEB      N/A     29  32 100 CALM        N/A
$$




USA.gov is the U.S. government's official web portal to all federal, state and local government web resources and services.